TimeMST,TemperatureF,Dew PointF,Humidity,Sea Level PressureIn,VisibilityMPH,Wind Direction,Wind SpeedMPH,Gust SpeedMPH,PrecipitationIn,Events,Conditions,WindDirDegrees,DateUTC
12:53 AM,28.0,8.1,43,29.90,10.0,WNW,9.2,-,N/A,,Clear,290,2013-02-05 07:53:00
1:53 AM,28.0,9.0,45,29.91,10.0,WNW,8.1,-,N/A,,Clear,290,2013-02-05 08:53:00
2:53 AM,27.0,8.1,45,29.91,10.0,WSW,5.8,-,N/A,,Clear,250,2013-02-05 09:53:00
3:53 AM,27.0,9.0,47,29.92,10.0,West,13.8,-,N/A,,Clear,270,2013-02-05 10:53:00
5:53 AM,24.1,9.0,53,30.01,10.0,West,13.8,-,N/A,,Clear,270,2013-02-05 12:53:00
6:53 AM,24.1,10.0,55,30.03,10.0,West,15.0,-,N/A,,Clear,270,2013-02-05 13:53:00
7:53 AM,28.0,12.0,51,30.09,10.0,West,8.1,-,N/A,,Clear,270,2013-02-05 14:53:00
8:53 AM,34.0,12.9,42,30.09,10.0,West,5.8,-,N/A,,Clear,260,2013-02-05 15:53:00
9:53 AM,39.9,15.1,36,30.11,10.0,WSW,6.9,-,N/A,,Clear,240,2013-02-05 16:53:00
10:53 AM,46.9,16.0,29,30.07,10.0,Calm,Calm,-,N/A,,Clear,0,2013-02-05 17:53:00
11:53 AM,52.0,15.1,23,30.04,10.0,SSE,8.1,-,N/A,,Clear,150,2013-02-05 18:53:00
12:53 PM,54.0,15.1,22,30.00,10.0,SE,9.2,-,N/A,,Clear,130,2013-02-05 19:53:00
1:53 PM,57.0,14.0,18,29.95,10.0,SE,10.4,19.6,N/A,,Clear,130,2013-02-05 20:53:00
2:53 PM,57.9,15.1,19,29.93,10.0,SE,17.3,24.2,N/A,,Clear,140,2013-02-05 21:53:00
3:53 PM,57.9,16.0,19,29.93,10.0,SSE,16.1,-,N/A,,Clear,150,2013-02-05 22:53:00
4:53 PM,55.0,15.1,21,29.94,10.0,SE,11.5,-,N/A,,Clear,140,2013-02-05 23:53:00
5:53 PM,48.0,15.1,27,29.96,10.0,SSE,9.2,-,N/A,,Clear,150,2013-02-06 00:53:00
6:53 PM,46.9,15.1,28,29.97,10.0,SSE,8.1,-,N/A,,Clear,150,2013-02-06 01:53:00
7:53 PM,46.0,16.0,30,29.96,10.0,South,11.5,-,N/A,,Clear,170,2013-02-06 02:53:00
8:53 PM,41.0,15.1,35,29.94,10.0,ESE,6.9,-,N/A,,Clear,120,2013-02-06 03:53:00
9:53 PM,43.0,17.1,35,29.90,10.0,South,5.8,-,N/A,,Clear,170,2013-02-06 04:53:00
10:53 PM,44.1,17.1,34,29.86,10.0,South,5.8,-,N/A,,Clear,190,2013-02-06 05:53:00